Location: Hamilton
(37.7830°S, 175.2830°E)
Time: 03:42:01
(UTC+13:00)

Lacrosse 5 - Pass Details

Date: 24 January 2019
Orbit: 713 x 725 km, 57.0° (Epoch: 17 February)

Event Time Altitude Azimuth Distance (km) Brightness Sun altitude
Rises 22:52:53 0° 237° (WSW) 3,162 6.5 -22.0°
Reaches altitude 10° 22:55:49 10° 252° (WSW) 2,231 5.2 -22.3°
Maximum altitude 22:59:33 21° 299° (WNW) 1,616 3.7 -22.8°
Enters shadow 23:01:11 18° 324° (NW) 1,743 3.7 -23.0°
